Starlink 32952

operational
NORAD ID: 63146 Int'l Des: 2025-043 Owner: SPXS Country: US Constellation: starlink
LEOCIRCULAR

关于 Starlink 32952

正在加载描述...

实时位置

正在加载3D地球...

即将过境

高度历史

Altitude vs Time

uPlot chart will show altitude changes over time

两行轨道根数

1 63146U 25043Q 25305.53251187 .00026665 00000-0 97540-3 0 9994
2 63146 43.0016 26.7953 0001126 260.6707 99.4017 15.27566780 38318
Epoch: Nov 1, 2025 • Age: 15 hours

当前状态

高度 489.4 km
速度 7.62 km/s
星下点 -27.28°S, 136.86°E
发射日期 Mar 3, 2025
运行时间 0.6 years
类型 internet

技术详情

分类 Payload
质量 730.00 kg
干质量 700.00 kg
总质量 730.00 kg
长度 0.30 m
直径 4.10 m
跨度 29.00 m
形状 Box + pan
制造商 SPXS
平台类型 Starlink V2M
阶段状态 In Orbit
所有者/国家 SPXS/US

大型星座

Loading constellations...